This is the latest recevied weather packets stored in our database for station/object DB0HRH-10. If no packets are shown the sender has not sent any weather packets the latest 10 day(s).
| Time | Temp. | Humidity | Pressure | Rain* | Wind** | Luminosity | Snow |
|---|---|---|---|---|---|---|---|
| 1777882663 | 17.22° C | 52% | 1019.5 hPa | - | - | - | - |
| 1777881763 | 17.22° C | 52% | 1019.6 hPa | - | - | - | - |
| 1777880862 | 16.67° C | 51% | 1019.6 hPa | - | - | - | - |
| 1777879962 | 16.67° C | 50% | 1019.5 hPa | - | - | - | - |
| 1777879062 | 16.67° C | 51% | 1019.5 hPa | - | - | - | - |
| 1777878162 | 16.11° C | 51% | 1019.6 hPa | - | - | - | - |
| 1777877262 | 16.11° C | 50% | 1019.6 hPa | - | - | - | - |
| 1777876362 | 16.11° C | 49% | 1019.6 hPa | - | - | - | - |
| 1777875462 | 16.11° C | 48% | 1019.5 hPa | - | - | - | - |
| 1777874561 | 16.11° C | 47% | 1019.3 hPa | - | - | - | - |
| 1777873661 | 16.11° C | 47% | 1019.4 hPa | - | - | - | - |
| 1777872761 | 15.56° C | 47% | 1019.4 hPa | - | - | - | - |
| 1777871861 | 15.56° C | 47% | 1019.3 hPa | - | - | - | - |
| 1777870961 | 15.56° C | 47% | 1019.4 hPa | - | - | - | - |
| 1777870061 | 15° C | 49% | 1019.4 hPa | - | - | - | - |
| 1777869161 | 15.56° C | 49% | 1019.3 hPa | - | - | - | - |
| 1777868261 | 15.56° C | 49% | 1019.5 hPa | - | - | - | - |
| 1777867361 | 15° C | 51% | 1019.3 hPa | - | - | - | - |
| 1777866461 | 15° C | 53% | 1019.5 hPa | - | - | - | - |
| 1777865561 | 15.56° C | 49% | 1019.7 hPa | - | - | - | - |
| 1777864661 | 15.56° C | 49% | 1019.8 hPa | - | - | - | - |
| 1777863761 | 15.56° C | 51% | 1019.9 hPa | - | - | - | - |
| 1777862860 | 16.11° C | 49% | 1019.9 hPa | - | - | - | - |
| 1777861960 | 16.67° C | 47% | 1019.9 hPa | - | - | - | - |
| 1777861060 | 16.11° C | 45% | 1019.9 hPa | - | - | - | - |
* Rain since midnight (hover to see other rain measurements)
** Current wind speed in m/s (hover to see current wind gust speed)